Location: Wheeling
(40.0640°N, 80.7210°W)
Time: 22:45:12
(UTC-04:00)

N. Korean satellite - Pass Details

Date: 09 August 2021
Orbit: 449 x 498 km, 97.3° (Epoch: 25 September)

Event Time Altitude Azimuth Distance (km) Brightness Sun altitude
Rises 05:38:18 0° 35° (NE) 2,513 11.5 -9.6°
Reaches altitude 10° 05:41:28 10° 67° (ENE) 1,616 10.9 -9.0°
Maximum altitude 05:42:55 12° 92° (E) 1,480 10.0 -8.8°
Drops below altitude 10° 05:44:20 10° 116° (ESE) 1,600 9.7 -8.5°
Sets 05:47:26 0° 149° (SSE) 2,455 10.2 -8.0°
